Weather History for Trinidad, CO

Change the Weather History Date:

Friday, July 26, 2013

  Actual Average Record
Temperature  
Mean Temperature 69 °F 73 °F  
Max Temperature 83 °F 88 °F 100 °F (1953)
Min Temperature 55 °F 59 °F 51 °F (2004)
Degree Days  
Heating Degree Days 0 0  
Month to date heating degree days 0 0  
Since 1 June heating degree days 21 39  
Since 1 July heating degree days 0 0  
Cooling Degree Days 4 8  
Month to date cooling degree days 256 227  
Year to date cooling degree days 600 396  
Since 1 June cooling degree days 537 368  
Growing Degree Days 18 (Base 50)    
Moisture  
Dew Point 52 °F    
Average Humidity 62    
Maximum Humidity 93    
Minimum Humidity 30    
Precipitation  
Precipitation 0.00 in 0.08 in 1.72 in (1998)
Month to date precipitation 1.79 1.85  
Year to date precipitation 4.81 7.78  
Sea Level Pressure  
Sea Level Pressure 30.11 in    
Wind  
Wind Speed 9 mph (SW)    
Max Wind Speed 22 mph    
Max Gust Speed 29 mph    
Visibility 10 miles    
Events      
T = Trace of Precipitation, MM = Missing Value Source: NWS Daily Summary

Daily Weather History Graph

Daily Weather History Graph

Search for Another Location

Airport:

Trip Planner

Search our weather history database for the weather conditions in past years. The results will help you decide how hot, cold, wet, or windy it might be!

Date:

Astronomy

Jul. 26, 2013 Rise Set
Actual Time 5:57 AM MDT 8:09 PM MDT
Civil Twilight 5:28 AM MDT 8:39 PM MDT
Nautical Twilight 4:52 AM MDT 9:14 PM MDT
Astronomical Twilight 4:12 AM MDT 9:53 PM MDT
Moon 10:33 PM MDT (7/26) 10:28 AM MDT (7/26)
Length of Visible Light 15h 11m
Length of Day
14h 12m
Waning Gibbous, 79% of the Moon is Illuminated
Jul 26
Waning Gibbous
Jul 29
Last Quarter
Aug 6
New
Aug 14
First Quarter
Aug 20
Full

Hourly Weather History & Observations

Time (MDT) Temp. Dew Point Humidity Pressure Visibility Wind Dir Wind Speed Gust Speed Precip Events Conditions
12:54 AM 60.1 °F 55.9 °F 86% 30.09 in 10.0 mi West 6.9 mph - N/A   Clear
2:54 AM 57.0 °F 55.0 °F 93% 30.13 in 10.0 mi WNW 6.9 mph - N/A   Clear
3:54 AM 57.0 °F 54.0 °F 89% 30.14 in 10.0 mi WNW 6.9 mph - N/A   Clear
4:54 AM 57.0 °F 53.1 °F 87% 30.13 in 10.0 mi West 6.9 mph - N/A   Clear
5:54 AM 55.9 °F 53.1 °F 90% 30.13 in 10.0 mi West 6.9 mph - N/A   Clear
6:54 AM 59.0 °F 53.1 °F 81% 30.14 in 10.0 mi WSW 9.2 mph - N/A   Clear
7:54 AM 64.9 °F 54.0 °F 68% 30.15 in 10.0 mi WSW 5.8 mph - N/A   Clear
8:54 AM 68.0 °F 53.1 °F 59% 30.17 in 10.0 mi Calm Calm - N/A   Clear
9:54 AM 70.0 °F 55.9 °F 61% 30.15 in 10.0 mi East 4.6 mph - N/A   Clear
10:54 AM 72.0 °F 54.0 °F 53% 30.16 in 10.0 mi Calm Calm - N/A   Clear
11:54 AM 75.0 °F 53.1 °F 46% 30.16 in 10.0 mi SE 8.1 mph - N/A   Clear
12:54 PM 75.9 °F 52.0 °F 43% 30.14 in 10.0 mi ESE 10.4 mph 17.3 mph N/A   Clear
1:54 PM 80.1 °F 51.1 °F 36% 30.10 in 10.0 mi East 11.5 mph 17.3 mph N/A   Clear
2:54 PM 81.0 °F 51.1 °F 35% 30.09 in 10.0 mi ESE 10.4 mph - N/A   Clear
3:54 PM 82.9 °F 50.0 °F 32% 30.07 in 10.0 mi Variable 4.6 mph - N/A   Partly Cloudy
4:54 PM 82.0 °F 48.0 °F 30% 30.06 in 10.0 mi East 11.5 mph 18.4 mph N/A   Clear
5:54 PM 80.1 °F 46.9 °F 31% 30.07 in 10.0 mi SE 11.5 mph - N/A   Scattered Clouds
6:54 PM 78.1 °F 50.0 °F 37% 30.07 in 10.0 mi SSW 11.5 mph - N/A   Mostly Cloudy
7:54 PM 72.0 °F 52.0 °F 49% 30.08 in 10.0 mi SW 4.6 mph - N/A   Clear
8:54 PM 69.1 °F 53.1 °F 57% 30.10 in 10.0 mi WSW 15.0 mph - N/A   Clear
9:54 PM 69.1 °F 52.0 °F 54% 30.09 in 10.0 mi WSW 19.6 mph - N/A   Clear
10:54 PM 68.0 °F 51.1 °F 55% 30.10 in 10.0 mi SW 13.8 mph - N/A   Clear
11:54 PM 68.0 °F 48.9 °F 50% 30.08 in 10.0 mi WSW 15.0 mph - N/A   Clear